EHI
0 0 0 0 0 0 0 0 0 0 0 0 0 2 5 8 11 15 23 30 30 25 22 22 22 24 26 27 30 31 29 25 20 18 16 14 14 13 11 10 10 10 11 12
0 0 0 0 0 0 0 0 0 0 0 1 1 3 6 9 12 16 21 26 27 25 24 24 26 28 29 29 29 29 27 24 20 17 15 13 13 12 11 10 9 9 11 12
0 0 0 0 0 0 0 1 1 1 1 2 3 4 7 10 13 15 17 20 22 20 20 23 28 31 32 31 29 27 25 22 20 18 15 13 13 14 13 12 10 9 12 13
0 0 0 0 0 0 1 2 3 2 3 3 4 5 7 9 11 13 12 13 15 14 14 18 24 29 30 29 27 26 24 22 22 21 17 15 15 17 16 13 11 10 12 14
0 0 0 0 1 1 2 3 4 4 4 4 5 6 6 7 9 9 8 9 10 11 13 16 20 24 25 24 24 24 23 21 22 21 19 16 16 16 16 14 12 10 11 13
0 0 0 1 2 3 3 3 5 5 6 6 6 6 5 6 6 5 5 7 10 14 15 15 17 21 22 22 21 22 21 19 19 19 19 16 14 15 16 15 12 9 10 12
0 0 0 1 3 4 4 3 4 6 7 7 6 4 5 5 4 3 4 6 11 16 17 15 16 19 21 21 21 21 20 19 18 19 19 17 15 15 17 17 14 11 11 11
0 0 0 1 2 3 4 4 4 5 6 6 5 5 6 6 5 5 6 8 12 16 16 15 16 19 20 20 21 21 21 20 20 20 20 20 18 17 19 19 17 15 13 11
1 0 0 0 1 2 3 3 3 4 5 6 5 5 6 6 6 8 11 12 13 15 16 16 16 18 19 19 19 21 22 21 20 20 21 21 20 20 21 22 20 17 14 12
1 0 0 0 1 2 3 3 3 4 7 8 6 5 6 6 7 10 14 14 14 15 18 19 18 18 18 17 18 22 22 21 20 20 20 20 20 19 20 21 19 16 13 12
1 0 0 0 2 3 3 3 4 6 8 8 7 6 6 6 8 10 13 14 13 14 18 20 19 18 18 18 19 21 22 20 20 19 17 17 15 14 14 14 13 11 10 10
0 0 0 0 1 2 2 2 3 5 7 7 7 6 7 8 9 11 12 13 13 14 16 18 19 18 18 19 20 21 20 19 18 17 16 13 10 10 9 7 6 5 5 5
0 0 0 0 0 1 1 1 1 3 5 6 7 8 9 10 11 12 12 13 14 14 14 15 16 15 15 17 19 20 19 17 17 16 15 12 9 8 7 5 2 1 1 1
0 0 0 0 0 0 0 0 1 2 4 5 6 8 10 11 12 12 12 13 13 13 13 12 12 10 10 13 15 16 16 15 14 14 13 11 8 7 7 5 2 0 0 0
0 0 0 0 0 0 0 1 2 3 3 4 5 6 8 10 10 10 9 9 10 10 9 8 7 6 7 9 11 12 12 12 12 11 10 8 6 6 6 4 2 0 0 0
0 0 0 0 0 0 0 1 2 3 3 4 4 4 5 7 7 7 6 5 4 5 5 5 4 4 5 7 7 8 9 9 8 8 7 4 2 3 4 3 1 0 0 0
0 0 0 0 0 1 1 2 3 4 4 5 4 4 4 4 5 5 4 3 1 1 3 3 3 3 4 4 4 5 5 4 4 4 3 1 0 1 1 1 0 0 0 0
0 0 0 0 1 2 3 4 5 6 6 6 6 4 3 3 3 2 3 3 1 1 2 3 3 3 3 3 3 2 2 1 1 1 1 0 0 0 0 0 0 0 0 0
0 0 0 1 2 3 5 5 6 6 6 6 5 3 1 1 1 1 2 3 2 1 1 2 3 3 3 3 3 1 0 0 0 0 0 0 0 0 0 0 0 0 0 0
0 0 1 2 2 3 4 6 6 5 5 4 3 1 0 0 0 0 1 2 3 2 1 1 3 3 3 3 2 1 0 0 0 0 0 0 0 0 0 0 0 0 0 0
0 0 1 3 2 2 3 5 5 3 2 1 1 0 0 0 0 0 0 1 2 3 2 1 2 3 3 3 1 0 0 0 0 0 0 0 0 0 0 0 0 0 0 0
1 1 2 3 2 1 2 3 2 1 0 0 0 0 0 0 0 0 0 0 2 3 3 2 2 3 2 2 1 0 0 0 0 0 0 0 0 0 0 0 0 0 0 0
3 3 4 3 3 1 1 1 1 1 0 0 0 0 0 0 0 0 0 0 1 2 3 3 2 1 1 1 0 0 0 0 0 0 0 0 0 0 0 0 0 0 0 0
6 5 5 4 3 3 2 2 2 1 0 0 0 0 0 0 0 0 0 0 1 1 2 2 1 0 0 0 0 0 0 0 0 0 0 0 0 0 0 0 0 0 0 0
6 5 4 3 2 2 2 2 1 1 0 0 0 0 0 0 0 0 0 0 0 0 1 1 0 0 0 0 0 0 0 0 0 0 0 0 0 0 0 0 0 0 0 0
4 3 1 1 1 1 1 1 0 0 0 0 0 0 0 0 0 0 0 0 0 0 0 0 0 0 0 0 0 0 0 0 0 0 0 0 0 0 0 0 0 0 0 0
2 1 0 0 0 0 0 0 0 0 0 0 0 0 0 0 0 0 0 0 0 0 0 0 0 0 0 0 0 0 0 0 0 0 0 0 0 0 0 0 0 0 0 0
Wind_Speed
3 3 1 2 3 2 3 6 7 7 6 7 7 7 6 5 4 5 5 6 6 5 4 4 4 4 5 5 5 5 5 5 4 4 3 3 2 2 2 2 2 2 2 1
5 5 4 3 4 1 2 4 5 6 3 4 4 5 5 5 5 5 5 6 5 5 5 5 5 5 5 5 5 5 5 5 4 4 3 3 3 2 2 2 2 2 2 2
2 5 5 4 4 1 2 3 7 6 6 5 5 6 6 5 5 5 5 4 4 5 5 5 5 6 5 5 5 5 5 5 4 4 4 4 4 2 2 2 2 2 2 2
1 3 2 6 2 3 5 3 3 4 4 6 7 6 4 4 5 5 5 4 3 3 3 3 4 4 5 4 4 4 4 4 4 4 4 4 4 4 3 2 2 3 3 3
3 1 3 5 3 1 4 3 3 3 3 3 5 5 2 1 4 5 5 4 4 4 4 3 3 4 4 4 4 4 4 4 4 4 4 4 4 4 4 3 3 3 2 2
3 2 3 5 5 1 7 2 4 2 4 4 5 4 3 2 3 4 3 3 2 2 3 3 3 3 4 4 4 4 5 4 4 4 4 4 4 4 3 3 3 2 2 2
3 2 4 5 6 4 4 4 2 2 3 4 4 5 4 3 3 3 2 2 3 3 3 3 3 4 4 4 5 5 4 3 3 4 4 4 3 3 2 2 2 1 1 1
3 3 6 4 3 3 4 3 1 3 4 4 3 4 4 4 3 2 2 1 2 2 2 2 3 4 3 4 5 4 3 3 3 3 3 2 2 2 2 2 2 2 1 0
5 6 5 0 3 3 4 2 1 2 2 5 5 4 4 3 3 2 2 1 1 2 2 1 2 4 4 4 3 3 3 3 2 2 1 2 3 3 2 2 2 2 1 1
1 1 0 2 3 2 2 2 1 2 3 5 5 4 3 2 2 2 1 1 1 1 1 1 2 2 3 3 2 3 3 2 2 2 1 1 1 2 2 2 2 2 2 2
1 1 2 2 2 2 3 4 4 3 2 3 5 4 3 2 2 1 1 1 1 2 1 1 1 1 2 2 3 3 2 2 1 2 2 1 0 1 2 2 4 4 3 3
4 5 3 3 2 1 2 2 1 1 0 1 3 3 3 2 2 2 2 2 2 1 1 1 0 1 1 1 3 4 2 2 2 2 2 2 1 1 2 0 0 2 3 3
4 3 3 2 1 1 1 0 0 1 2 1 1 3 3 2 2 2 2 2 2 1 0 0 1 1 2 1 2 3 3 2 2 2 3 3 2 2 1 1 2 1 1 2
2 2 1 1 1 1 1 1 1 1 1 2 2 2 2 2 2 2 2 2 2 1 0 0 1 2 2 1 1 2 2 3 2 3 3 3 3 3 3 3 2 1 1 0
1 2 3 1 1 2 2 2 2 1 1 2 2 1 1 2 2 2 1 1 1 1 1 1 1 2 2 1 1 2 2 2 2 2 2 2 2 2 2 3 3 1 0 1
2 1 2 2 1 1 1 1 0 1 0 1 1 1 1 2 1 1 1 1 2 1 2 2 2 3 2 1 2 2 2 3 2 2 2 2 2 2 2 3 2 2 2 1
3 2 2 1 0 1 1 1 2 2 1 1 1 2 2 1 1 0 1 1 2 2 2 2 3 3 2 2 2 2 2 2 2 1 2 2 2 2 2 3 3 2 2 2
4 4 4 4 3 1 1 1 1 1 1 2 1 1 1 2 1 1 1 1 0 1 2 3 2 2 2 2 2 2 1 2 2 2 2 2 2 2 2 3 3 3 2 2
3 2 1 1 1 2 2 2 2 2 1 1 2 1 2 2 2 1 1 1 0 2 4 3 2 1 2 2 1 2 2 2 2 2 2 2 2 2 2 2 3 3 3 2
3 2 2 1 1 1 1 1 1 1 1 2 1 1 1 2 2 1 1 1 3 3 3 2 1 1 2 2 2 1 2 2 2 2 2 2 2 2 2 2 2 3 3 3
2 1 1 1 1 2 1 1 1 2 2 2 2 2 2 2 2 1 1 2 4 3 2 2 2 1 1 1 0 1 1 1 2 2 2 2 2 2 2 2 2 2 2 2
1 1 1 1 2 2 2 2 2 2 1 1 1 2 1 2 2 2 3 3 3 3 2 1 1 1 1 1 1 1 1 1 2 2 2 2 2 2 2 2 1 1 2 2
1 2 2 3 3 3 3 2 2 2 2 2 2 2 2 3 3 3 3 3 2 3 2 1 2 2 1 1 1 1 1 2 2 2 2 2 2 2 2 2 2 1 2 2
2 3 3 3 1 1 2 2 1 1 1 2 2 3 3 2 2 3 3 3 4 3 2 2 3 3 2 1 1 1 1 2 2 2 2 2 1 1 2 2 1 1 2 2
3 3 2 1 1 2 2 2 1 1 1 1 2 2 2 2 3 3 2 2 3 3 2 3 4 3 2 1 1 1 1 2 2 2 2 2 2 1 2 2 2 1 1 1
2 2 2 2 2 2 1 1 1 1 1 1 2 2 1 1 1 1 1 1 2 2 2 2 2 2 2 2 1 1 2 2 2 2 2 2 2 1 2 2 2 2 2 2
2 2 1 1 1 0 1 1 1 1 1 1 1 1 1 0 0 1 1 1 1 1 1 1 2 2 2 2 1 1 2 2 2 2 2 2 2 2 2 2 2 2 2 2
Wind_Direction
220 244 293 280 281 246 165 171 173 196 184 200 186 167 157 151 141 128 131 130 135 143 149 155 159 170 174 165 167 169 164 169 184 185 176 173 181 196 202 205 210 211 214 230
353 340 358 342 327 84 144 144 144 143 200 220 180 138 128 135 134 135 139 143 144 149 146 156 164 174 179 170 169 164 165 175 175 169 170 177 185 191 200 218 244 233 223 231
308 319 19 329 292 179 146 155 151 175 203 172 138 146 158 155 140 136 130 128 147 165 176 178 176 170 171 176 167 168 173 178 182 180 183 195 199 195 218 232 246 253 236 236
122 29 225 247 288 95 94 67 98 131 155 160 160 159 152 154 147 145 135 140 160 173 175 174 167 166 171 169 167 173 176 181 189 188 197 203 195 198 216 226 233 244 237 227
121 171 274 306 333 58 111 36 26 122 139 145 129 96 69 169 152 154 153 157 169 178 175 161 157 167 161 164 170 174 183 192 196 193 196 195 200 210 213 210 226 238 238 223
127 158 223 259 297 296 103 46 326 91 128 139 123 130 223 204 147 137 137 145 148 142 135 151 171 151 147 165 172 187 196 197 192 189 192 201 212 215 211 203 214 218 220 225
154 189 253 275 312 37 102 217 280 103 117 123 142 181 186 138 110 117 128 135 140 148 157 179 175 149 159 182 202 206 198 193 193 199 204 207 209 207 206 206 199 201 207 244
150 176 246 296 33 98 191 222 124 97 115 113 119 106 107 112 114 102 87 97 121 136 154 181 169 156 169 213 215 197 188 191 201 207 216 207 194 210 210 195 185 198 202 233
175 206 233 175 131 162 147 118 124 118 112 115 112 117 123 125 128 131 127 130 126 141 152 178 176 161 181 225 205 180 181 199 207 199 204 190 187 195 197 190 186 192 182 196
91 254 289 70 85 67 76 78 32 107 117 122 125 131 130 136 147 142 128 152 148 138 167 214 204 185 199 208 176 163 181 201 195 181 192 200 187 186 184 184 183 189 188 194
98 230 31 7 88 67 31 43 37 27 72 129 133 141 152 156 179 169 139 141 130 137 169 220 205 210 218 184 152 158 180 193 190 186 177 176 175 205 196 200 195 191 197 187
212 216 175 237 263 72 45 16 12 4 357 188 149 155 160 179 192 169 137 117 97 84 75 317 315 274 287 208 163 163 178 196 200 199 189 176 154 36 12 311 199 187 198 187
207 209 187 221 299 44 79 45 274 184 188 185 154 162 165 180 186 151 132 124 128 146 216 339 337 294 276 232 167 172 187 198 202 194 190 185 181 172 188 359 23 48 178 181
177 125 93 255 259 350 36 346 356 9 116 136 146 159 153 147 141 139 157 173 161 148 46 328 291 281 277 236 176 194 197 200 205 207 203 197 197 197 189 183 191 297 340 207
261 172 194 229 351 11 19 27 26 359 70 85 94 101 142 147 159 184 203 174 129 101 314 301 285 278 280 231 205 219 212 209 206 203 207 205 203 195 183 174 178 180 111 6
186 135 123 97 50 17 26 33 21 266 189 118 105 154 177 165 166 181 205 165 149 221 251 257 266 269 258 225 225 228 224 219 203 186 191 189 183 179 175 172 173 170 183 193
160 182 178 182 249 258 212 212 207 205 207 179 185 177 159 124 97 61 253 216 202 222 231 228 249 269 255 227 219 228 224 217 221 194 186 184 182 182 174 168 174 180 205 208
169 185 185 189 197 215 242 238 208 185 215 225 197 159 155 158 181 230 233 230 272 297 273 243 232 251 258 239 223 220 214 205 199 187 175 165 164 162 158 159 169 181 193 202
91 94 107 100 147 165 195 226 223 217 228 221 186 197 210 212 212 216 201 128 192 282 280 263 234 237 262 262 252 205 189 195 182 156 143 143 145 143 153 160 170 173 172 177
64 60 49 42 69 149 219 222 207 240 249 210 181 182 245 252 222 204 203 232 238 237 245 244 228 250 262 258 249 189 181 184 167 154 145 149 154 159 166 166 170 174 172 176
58 48 27 18 323 287 262 214 208 238 241 190 186 211 232 251 238 213 201 260 275 261 252 239 223 232 230 219 179 134 142 156 160 159 162 168 171 170 178 183 180 176 174 175
19 335 288 278 281 288 279 256 241 235 227 204 209 216 233 262 259 256 246 237 252 252 249 238 219 216 190 154 124 130 138 142 148 152 166 170 168 173 187 187 178 173 166 170
281 271 273 273 268 271 277 265 245 218 209 213 224 228 230 234 224 217 255 259 246 238 227 221 193 174 160 120 120 132 143 146 149 154 165 162 165 170 174 174 174 175 167 171
297 287 280 274 258 255 273 274 258 232 229 247 234 220 216 232 258 245 229 239 227 212 196 198 190 179 156 137 138 146 153 154 154 157 154 138 143 156 165 166 170 177 173 176
287 286 281 277 243 233 236 251 277 290 292 283 262 250 241 217 214 233 230 223 211 193 187 196 194 189 178 179 169 167 167 168 167 159 151 151 164 178 187 181 176 179 181 184
295 292 280 253 230 226 237 231 234 269 271 279 292 293 279 246 210 209 199 193 187 180 182 188 185 181 178 174 175 176 169 160 154 153 159 166 172 177 181 178 174 177 182 186
311 309 317 330 315 239 184 174 203 269 280 266 276 289 283 247 164 141 133 171 184 178 177 181 179 175 169 159 174 194 176 163 164 166 167 169 171 180 188 186 181 173 170 167